Flag for United Kingdom Weather past 2 weeks in Saint Helier, Jersey, United Kingdom

Now
55 °F

Passing clouds.


Feels Like: 51 °F
Forecast: 54 / 62 °F
Wind: 17 mph from Northwest

Location: Jersey Airport

Current Time: Oct 22, 2014 at 11:08:52 PM

Latest Report: Oct 22, 2014 at 8:50 PM


Visibility: N/A

Pressure: 30.33 "Hg

Humidity: 72%

Dew point: 46 °F

Location of Saint HelierLocation

Historic Weather in Saint Helier — Graph

°F

Saint Helier temperature yesterday

Maximum temperature yesterday: 59 °F (at 4:50 AM)
Minimum temperature yesterday: 54 °F (at 11:50 AM)
Average temperature yesterday: 57 °F

Past Weeks' High & Low Weather Summary

 TemperatureHumidityPressure
High72 °F (Oct 18, 2:20 PM)100% (Oct 8, 4:50 AM)30.42 "Hg (Oct 8, 4:50 AM)
Low52 °F (Oct 11, 7:50 PM)56% (Oct 9, 4:20 PM)29.42 "Hg (Oct 8, 9:50 AM)
Average59 °F84%29.82 "Hg
* Reported Oct 7 8:20 PM — Oct 22 8:50 PM, Saint Helier, Weather by CustomWeather, © 2014

Note: Actual official high and low records may vary slightly from our data, if they occured in-between our weather recording intervals... More about our weather records

Advertising

Saint Helier weather history for previous 24 hours

 ConditionsComfort  
Time TempWeatherWind HumidityBarometerVisibility
8:50 PM
Oct 22
55 °FPassing clouds.17 mph72%30.33 "HgN/A
8:20 PM55 °FPassing clouds.10 mph72%30.33 "HgN/A
7:50 PM55 °FPassing clouds.12 mph67%30.33 "HgN/A
7:20 PM55 °FPassing clouds.15 mph72%30.33 "HgN/A
6:50 PM55 °FScattered clouds.14 mph72%30.33 "HgN/A
6:20 PM55 °FPassing clouds.20 mph72%30.33 "HgN/A
5:50 PM55 °FPassing clouds.16 mph72%30.33 "HgN/A
5:20 PM55 °FPassing clouds.13 mph72%30.33 "HgN/A
4:50 PM55 °FPassing clouds.20 mph72%30.36 "HgN/A
4:20 PM57 °FPartly sunny.17 mph72%30.36 "HgN/A
3:20 PM57 °FPassing clouds.13 mph67%30.36 "HgN/A
2:50 PM59 °FPartly sunny.17 mph68%30.36 "HgN/A
2:20 PM59 °FPassing clouds.17 mph63%30.36 "HgN/A
1:50 PM59 °FPassing clouds.15 mph63%30.39 "HgN/A
1:20 PM59 °FScattered clouds.14 mph63%30.39 "HgN/A
12:50 PM59 °FPassing clouds.16 mph63%30.39 "HgN/A
12:20 PM57 °FPassing clouds.17 mph67%30.39 "HgN/A
11:50 AM59 °FScattered clouds.21 mph63%30.39 "HgN/A
11:20 AM57 °FPartly sunny.17 mph63%30.39 "HgN/A
10:50 AM57 °FPartly sunny.14 mph67%30.39 "HgN/A
10:20 AM55 °FPartly sunny.13 mph67%30.42 "HgN/A
9:50 AM55 °FPartly sunny.14 mph67%30.42 "HgN/A
9:20 AM55 °FPartly sunny.14 mph67%30.39 "HgN/A
8:50 AM55 °FPartly sunny.14 mph63%30.39 "HgN/A
8:20 AM54 °FPassing clouds.15 mph67%30.39 "HgN/A
7:50 AM54 °FPassing clouds.20 mph67%30.39 "HgN/A
7:20 AM54 °FPassing clouds.15 mph72%30.39 "HgN/A
6:50 AM54 °FPassing clouds.14 mph67%30.39 "HgN/A
6:20 AM54 °FPassing clouds.17 mph67%30.36 "HgN/A
5:50 AM54 °FPassing clouds.23 mph67%30.36 "HgN/A
5:20 AM54 °FPassing clouds.26 mph63%30.36 "HgN/A
4:50 AM52 °FPassing clouds.18 mph67%30.36 "HgN/A
4:20 AM54 °FPartly cloudy.21 mph67%30.36 "HgN/A
3:50 AM54 °FPassing clouds.21 mph72%30.36 "HgN/A
Weather by CustomWeather, © 2014

See weather overviewHow to use our weather pages